www.pogodaiklimat.ru

Погода и климат >> Архив погоды >> Аргентина >> Chamical


ПОГОДА в Chamical

  • Прогноз погоды в Chamical
  • Монитор погоды в Chamical
  • Климат города

АРХИВ ПОГОДЫ в Chamical

Время (UTC), дата Ветер
(напр.,м/с)
 
Видим.   Явления Облачность Т
(С)
Тd
(С)
f
(%)
Тe
(С)
Тes
(С)
Комфортность P
(гПа)
Po
(гПа)
Тmin
(С)
Tmax
(С)
R
(мм)
R24
(мм)
S
(см)
18 17.09 В 3 20 км 3/0
[Ci]
+23.0 +14.5 59 +27 +37 душно 1009.4 956.6
21 17.09 В 3 20 км ясно +23.4 +14.8 58 +27 +29 душно 1006.1 953.4
00 18.09 штиль 0 20 км 1/0
[Ac As]
+19.2 +11.9 63 +20 +20 1008.9 955.8 +13.4 +25.0
03 18.09 ЮВ 1 20 км ясно +18.0 +11.6 66 +19 +19 1007.9 955.3
06 18.09 ЮВ 2 20 км ясно +15.6 +12.8 83 +15 +15 1005.1 952.8
09 18.09 ЮВ 3 20 км ясно +14.2 +10.5 78 +13 +13 1003.7 951.3
12 18.09 ЮВ 3 20 км ясно +16.3 +11.5 73 +16 +18 1005.4 952.8 +13.0 +19.8
15 18.09 штиль 0 20 км ясно +22.6 +16.2 67 +27 +46 душно 1002.6 950.5
18 18.09 штиль 0 20 км ясно +27.6 +18.3 57 +32 +51 опасность
солнечного
удара
998.0 947.0
21 18.09 штиль 0 20 км ясно +28.9 +17.9 51 +33 +36 очень
душно
996.4 944.9
00 19.09 штиль 0 20 км ясно +25.0 +17.7 64 +29 +29 душно 1001.2 949.3 +16.0 +30.0
03 19.09 Ю 17 20 км 1/0
[Ci fib]
+19.3 +14.3 73 +19 +19 1003.7 951.7
06 19.09 ЮВ 11 20 км ясно +17.2 +7.1 51 +16 +16 1005.2 953.4
09 19.09 Ю 1 20 км ясно +14.3 +10.2 76 +15 +15 1008.7 956.6
12 19.09 З 1 20 км 9/9 1200 м
[Sc]
+14.2 +6.6 60 +15 +15 1013.0 960.4 +11.4 +25.0
15 19.09 С 2 20 км 9/0
[Ac As]
+18.7 +6.5 45 +20 +25 1014.2 961.3
18 19.09 С 2 20 км 6/0
[Ac trans Cs]
+22.5 +6.4 35 +23 +33 комфорт 1011.3 958.6
21 19.09 В 4 20 км 3/0
[Ac As Cs]
+22.7 +11.5 49 +25 +26 комфорт 1010.9 958.1
00 20.09 В 1 20 км 5/0
[Ac trans Cs]
+19.3 +10.3 56 +21 +21 комфорт 1013.5 960.4 +14.2 +23.4
03 20.09 ЮВ 2 20 км ясно +15.6 +5.0 49 +16 +16 1015.7 962.5
06 20.09 штиль 0 20 км ясно +14.4 +8.5 68 +14 +14 1015.2 962.2
09 20.09 штиль 0 20 км ясно +12.1 +9.8 86 +12 +12 1014.5 961.3
12 20.09 штиль 0 20 км ясно +16.0 +3.9 44 +16 +20 1015.7 962.5 +11.4 +20.0
15 20.09 СВ 3 20 км ясно +21.3 +12.2 56 +23 +35 комфорт 1012.8 960.0
18 20.09 штиль 0 20 км ясно +24.3 +14.3 54 +27 +46 жарко 1009.7 957.2
21 20.09 штиль 0 20 км 3/0
[Ci fib]
+25.0 +14.4 52 +28 +31 жарко 1007.9 955.3
00 21.09 штиль 0 20 км ясно +19.2 +15.8 81 +21 +21 комфорт 1009.6 956.8 +16.0 +26.0
03 21.09 Ю 3 20 км ясно +18.0 +10.0 59 +18 +18 1010.5 958.0
06 21.09 штиль 0 20 км 3/0
[Cs]
+16.5 +11.7 73 +16 +16 1009.4 957.0
09 21.09 Ю 2 20 км 4/0
[As trans Cs]
+14.7 +10.5 76 +14 +14 1009.3 956.8
12 21.09 ЮВ 2 20 км 8/0
[Cs]
+18.2 +13.0 72 +19 +21 1010.4 957.7 +13.9 +19.2
15 21.09 штиль 0 20 км 9/3
[Cb calv Ac cuf]
+24.8 +17.3 63 +29 +34 душно 1009.6 957.4
18 21.09 штиль 0 20 км 6/0
[Cs]
+29.2 +20.7 60 +36 +53 опасность
солнечного
удара
1006.8 954.9
21 21.09 СВ 1 20 км ясно +30.4 +20.4 55 +37 +40 очень
душно
1004.2 952.4
00 22.09 ЮВ 1 20 км ясно +25.8 +19.0 66 +31 +31 очень
душно
1003.1 951.4 +18.1 +31.0
03 22.09 ЮВ 1 20 км ясно +23.3 +19.5 79 +30 +30 очень
душно
1003.3 951.8
06 22.09 ЮВ 1 20 км ясно +22.9 +18.1 74 +28 +28 душно 1002.2 950.6
09 22.09 ЮВ 1 20 км ясно +19.6 +17.9 90 +23 +23 комфорт 1000.9 949.7
12 22.09 Ю 1 15 км мгла ясно +22.7 +16.1 66 +27 +30 душно 1001.8 950.5 +18.1 +25.8
15 22.09 штиль 0 15 км мгла ясно +31.4 +22.6 60 +41 +61 опасность
перегрева
1000.7 950.0
18 22.09 В 2 15 км мгла ясно +36.0 +23.5 49 +47 +61 опасность
перегрева
996.7 946.5
21 22.09 В 3 20 км ясно +36.5 +18.2 34 +40 +42 очень
душно
995.5 945.0
00 23.09 Ю 1 20 км ясно +28.4 +17.5 52 +33 +33 очень
душно
998.7 947.7 +22.7 +37.7
03 23.09 штиль 0 20 км ясно +25.2 +16.0 57 +29 +29 душно 999.3 948.8
06 23.09 штиль 0 20 км ясно +24.4 +16.1 60 +28 +28 душно 997.6 947.6
09 23.09 штиль 0 20 км ясно +20.4 +17.2 82 +23 +23 комфорт 998.9 948.4
12 23.09 ЮВ 2 20 км ясно +24.2 +14.8 56 +27 +30 жарко 1003.4 952.4 +47.6 +28.4
15 23.09 Ю 2 20 км ясно +30.2 +15.8 42 +33 +48 душно 1003.8 952.9
18 23.09 ЮВ 2 20 км ясно +32.8 +15.3 35 +35 +49 душно 1001.8 951.2
21 23.09 В 2 20 км ясно +33.4 +19.2 43 +39 +41 очень
душно
1000.6 949.7
00 24.09 ЮВ 2 20 км ясно +25.9 +11.9 42 +27 +27 жарко 1003.4 952.1 +24.1 +34.5
03 24.09 штиль 0 20 км ясно +20.0 +16.1 78 +22 +22 комфорт 1008.4 956.9
06 24.09 штиль 0 20 км 4/0
[Ac trans]
+20.0 +14.1 69 +22 +22 комфорт 1009.2 957.8
09 24.09 штиль 0 20 км 8/8 1200 м
[Sc]
+19.4 +8.7 50 +20 +20 1011.3 959.8
12 24.09 В 3 20 км 8/0
[Ac As]
+18.0 +8.2 53 +18 +19 1015.2 962.8 +17.4 +26.0
15 24.09 В 3 20 км 4/0
[Ac und]
+22.0 +15.3 66 +26 +35 душно 1013.1 960.6

 

Местоположение метеостанции Chamical (Аргентина): широта -30.36 долгота -66.28 высота над уровнем моря 461 м.

В архиве по умолчанию представлена погода в Chamical за последнюю неделю. Архивные данные за месяц целиком и за предыдущие месяцы, начиная с января 2011 года, Вы можете получить, выбрав интересующий диапазон дат из раскрывающегося списка и нажав кнопку "Ввод!".


*Определитесь, кто Вы:
робот инопланетянин человек

Внимание! Время в таблицах - всемирное. Для получения местного времени необходимо прибавить поправку, которая в Chamical равна -3 ч.

Смотрите также архив погоды в соседних городах и на ближайших метеорологических станциях:

Погода в La Rioja (Аргентина) (120 км)
Погода в San Fernando del Valle de Catamarca (Аргентина) (202 км)
Погода в Villa Dolores (Аргентина) (208 км)
Погода в Cordoba (Аргентина) (224 км)
Погода в San Juan (Аргентина) (234 км)
Погода в Villa de Maria del Rio Seco (Аргентина) (255 км)
Погода в Pilar (Аргентина) (271 км)
Погода в San Luis (Аргентина) (323 км)
Погода в Santiago del Estero (Аргентина) (347 км)
Погода в Rio Cuarto (Аргентина) (358 км)

Пояснения к столбцам:

Ветер - указаны скорость ветра в м/с - средняя за 10 мин, порывы в срок и между сроками (в фигурных скобках) и направление, откуда дует ветер: С - северный, СВ - северо-восточный, В - восточный, ЮВ - юго-восточный, Ю - южный, ЮЗ - юго-западный, З - западный, СЗ - северо-западный.
Видимость - горизонтальная дальность видимости в метрах или километрах. При видимости от 1 до 10 км при отсутствии осадков обычно наблюдается дымка, при ухудшении видимости до 1 км и менее - туман. В сухую погоду видимость может ухудшаться дымом, пылью или мглою.
Явления - указаны атмосферные явления, наблюдавшиеся в срок или в последний час перед сроком; фигурными скобками обозначены явления, наблюдавшиеся между сроками (за 1-3 часа до срока); квадратными скобками обозначены град или гололедные отложения с указанием их диаметра в мм.
Облачность - указаны через наклонную черту общая и нижняя облачность в баллах и высота нижней границы облаков в метрах; квадратными скобками обозначены формы облаков: Ci - перистые, Cs - перисто-слоистые, Cc - перисто-кучевые, Ac - высококучевые, As - высокослоистые, Sc - слоисто-кучевые, Ns - слоисто-дождевые, Cu - кучевые, Cb - кучево-дождевые. Подробнее классификацию облаков см. в Атласе облаков (PDF).
T - Температура воздуха - температура, измеренная на высоте 2 м над землей.
Td - Температура точки росы - температура, при понижении до которой содержащийся в воздухе водяной пар достигнет насыщения.
f - Относительная влажность воздуха - влажноcть воздуха, измеренная на высоте 2 м над землей.
Te - Эффективная температура - температура, которую ощущает одетый по сезону человек в тени. Характеристика душности погоды. При расчете учитывается влияние влажности воздуха и скорости ветра на теплоощущения человека.
Tes - Эффективная температура на солнце - температура, которую ощущает человек, с поправкой на солнечный нагрев. Характеристика знойности погоды. Зависит от высоты солнца над горизонтом, облачности и скорости ветра. Ночью, в пасмурную погоду, а также при ветре 12 м/с и более поправка равна нулю.
P - Атмосферное давление - приведенное к уровню моря атмосферное давление.
Po - Атмосферное давление - измеренное на уровне метеостанции атмосферное давление.
Tmin - Минимальная температура - минимум температуры воздуха на высоте 2 м над землей.
Tmax - Максимальная температура - максимум температуры воздуха на высоте 2 м над землей.
R - Количество осадков - Количество выпавших осадков за период времени, мм. При наведении курсора мыши на число - период времени, за который выпало указанное количество осадков.
R24 - Количество осадков - Количество выпавших осадков за 24 часа, мм.
S - Снежный покров - Высота снежного покрова, см. При наведении курсора мыши на число - состояние снежного покрова и степень покрытия местности в баллах.